Wind_Speed
68 77 82 75 91 107 118 118 120 128 133 134 133 131 117 99 85 76 74 72 65 64 63 62 60 59 59 58 56 54 52 52 53 54 55 56 58 59 59 57 56 57 54
69 72 76 91 84 89 92 109 127 129 125 122 114 105 91 84 73 64 70 65 61 60 60 57 56 53 51 49 48 46 46 47 49 49 52 53 54 52 53 51 49 49 47
64 63 76 91 93 91 87 85 88 89 93 95 93 88 82 76 67 59 68 63 59 59 58 55 50 48 46 44 44 44 44 45 47 49 50 51 51 49 44 42 42 42 41
61 61 62 65 70 71 71 73 76 80 85 83 84 85 83 69 58 52 63 57 56 57 52 48 46 44 42 43 43 44 46 47 48 48 48 47 46 42 39 38 37 36 33
56 54 54 56 61 65 69 71 70 72 71 81 73 78 77 67 57 55 57 51 53 52 47 43 42 42 42 43 45 47 48 48 47 46 44 43 40 37 37 36 31 28 25
48 48 49 51 51 52 55 58 59 58 61 66 63 65 66 62 49 51 51 49 46 44 42 39 40 40 42 45 46 48 47 45 44 42 41 40 37 35 34 32 28 24 21
43 45 45 47 48 48 45 46 49 48 49 49 50 55 58 56 45 47 47 41 41 39 38 39 39 42 44 46 46 44 42 42 42 42 40 38 34 34 33 29 26 22 21
39 40 37 38 35 33 32 34 36 35 37 40 42 45 45 43 42 41 39 36 36 37 38 38 41 44 45 43 40 40 41 41 42 41 39 37 33 34 33 30 29 26 24
36 34 32 32 32 29 30 29 28 28 29 32 33 35 36 38 39 34 34 34 34 36 37 39 42 42 41 38 38 40 39 39 39 38 38 35 33 35 34 33 32 29 26
34 30 30 29 27 28 28 26 25 24 25 27 28 31 32 32 32 33 34 33 36 37 38 40 40 39 37 37 38 38 37 36 35 35 35 34 35 35 36 36 35 34 32
29 27 28 28 27 27 26 23 21 22 23 24 26 27 27 29 30 31 32 36 39 40 41 41 38 38 37 37 37 35 35 32 30 31 32 33 35 36 36 38 38 38 37
29 30 28 28 28 28 25 23 23 24 25 26 27 28 29 30 31 34 37 40 42 43 42 39 39 38 37 37 35 34 32 29 25 26 28 32 35 37 39 40 41 42 42
29 30 28 28 28 28 27 27 27 28 29 31 33 35 36 37 39 40 42 44 45 46 43 39 41 39 38 36 34 33 31 27 27 28 29 33 37 39 41 42 43 45 46
30 32 33 30 29 29 29 31 32 32 32 34 35 36 37 39 40 40 42 43 44 44 41 41 42 40 38 36 35 33 32 32 32 33 35 38 41 43 45 46 49 50 50
34 35 35 35 32 31 31 32 32 32 33 33 33 34 36 38 38 40 42 42 42 41 41 41 41 41 41 39 38 38 38 39 39 40 42 44 47 49 51 53 54 54 56
40 39 40 38 36 33 32 32 33 33 33 33 32 31 31 33 35 36 37 38 40 41 43 43 43 43 44 43 43 43 44 45 46 46 49 52 54 56 58 60 61 63 65
42 43 42 40 39 37 37 34 34 34 35 34 33 33 31 30 32 34 34 36 39 41 43 44 45 47 48 48 49 49 50 51 51 54 57 59 61 63 65 66 66 67 69
40 40 38 39 40 39 38 36 36 36 36 37 36 35 34 33 32 33 34 38 40 40 42 44 48 51 53 54 55 56 57 59 60 62 63 65 66 67 69 71 73 75 77
38 38 39 39 40 40 41 40 40 40 39 39 39 39 37 36 35 36 38 41 43 45 45 47 49 52 55 58 60 62 63 65 66 68 70 72 74 74 76 80 82 83 84
38 39 40 40 41 41 41 43 43 44 44 44 44 43 42 40 38 37 39 42 44 47 49 49 50 53 57 61 65 68 70 72 74 75 78 80 80 80 82 82 83 83 83
40 41 42 42 43 43 44 44 46 47 48 47 46 46 46 45 45 43 42 43 44 46 49 51 53 55 57 58 60 62 64 67 70 73 74 76 77 78 79 79 81 82 82
41 41 42 43 44 45 45 47 47 48 48 48 48 48 48 49 49 48 47 47 48 48 50 52 55 58 61 63 64 66 68 71 74 76 78 81 82 84 84 84 85 86 86
39 40 41 43 44 45 46 47 48 49 49 50 50 50 50 51 53 54 54 54 55 56 56 57 59 61 64 66 67 68 70 72 74 76 79 81 82 84 84 85 85 85 85
39 40 42 43 44 45 47 48 49 49 49 49 49 49 52 54 57 59 60 61 61 63 64 66 67 69 71 72 73 75 75 76 77 79 80 82 83 84 83 83 83 83 84
40 42 43 44 44 45 47 48 49 50 50 51 53 54 56 58 60 63 65 67 69 70 71 72 73 74 75 77 78 78 78 78 79 80 81 81 81 82 82 83 82 82 82
41 42 43 44 45 46 47 49 50 52 53 55 57 59 62 64 66 68 70 72 73 75 75 75 76 77 76 76 77 78 77 76 75 76 77 76 76 77 78 79 79 78 78
Wind_Direction
278 254 261 252 244 246 249 252 253 258 262 264 267 274 272 275 278 283 285 284 281 280 279 276 275 274 275 276 277 277 275 274 273 273 273 273 274 276 279 280 280 278 277
263 261 253 260 259 258 251 251 252 256 260 265 267 269 274 275 280 282 283 281 279 278 278 275 275 275 275 274 272 271 270 269 268 270 272 273 276 279 280 280 281 282 281
269 261 251 255 262 263 263 261 258 260 263 265 264 268 275 277 280 279 280 276 277 275 273 275 275 273 272 271 271 269 269 269 269 269 272 277 279 280 280 281 282 281 281
274 271 265 261 259 259 260 263 265 263 267 265 266 270 275 276 277 276 270 268 269 269 271 271 271 271 269 269 269 270 269 270 271 274 276 277 278 280 280 281 279 277 277
274 271 265 262 258 256 256 259 259 259 261 266 264 265 270 275 275 267 266 264 265 267 268 268 267 266 266 267 268 269 270 272 274 275 274 274 275 276 278 275 270 270 272
274 271 268 264 265 263 261 263 265 263 263 264 269 268 268 269 265 263 264 262 260 261 265 264 262 263 265 267 269 271 273 274 273 272 271 270 271 271 269 263 261 258 255
274 270 269 267 266 266 265 262 263 260 260 261 262 260 262 266 264 262 259 256 257 258 260 260 261 263 267 270 273 274 273 272 270 269 268 268 265 263 258 251 249 243 244
271 269 266 264 266 269 269 268 263 263 262 261 258 259 263 262 260 256 258 255 254 254 255 258 262 266 271 275 274 273 273 271 269 267 265 263 259 253 245 239 241 240 240
265 266 271 273 277 276 270 264 264 266 267 265 262 260 259 257 258 258 254 250 251 251 254 258 263 269 274 274 274 274 273 270 267 265 261 257 249 244 238 237 237 240 243
260 261 264 271 273 269 265 265 265 268 268 268 265 263 261 259 256 252 249 251 249 250 254 258 266 273 274 273 275 276 274 270 265 261 257 249 244 237 234 236 236 238 243
256 257 264 266 270 268 266 265 266 267 269 268 266 265 262 259 256 256 254 251 249 251 256 261 268 275 272 273 275 276 271 266 262 257 250 245 237 235 237 240 241 243 247
247 255 264 267 268 268 269 272 271 271 270 267 264 264 262 260 258 257 255 253 253 257 260 265 270 271 266 271 274 273 267 260 257 253 246 239 238 238 241 244 247 251 254
253 260 264 260 257 258 261 262 265 266 268 270 270 269 268 267 264 259 256 256 258 261 264 266 269 263 261 266 269 269 267 262 254 248 244 241 243 246 247 251 254 256 259
246 254 257 255 256 257 257 260 265 270 271 271 272 271 270 268 267 268 267 264 262 261 262 261 259 256 257 262 263 262 261 258 255 249 247 247 248 249 250 254 258 261 263
241 252 259 260 255 254 258 264 268 272 272 268 267 269 269 269 269 267 266 266 265 263 260 257 257 253 252 255 259 261 262 261 259 259 257 254 253 254 256 259 261 264 266
246 249 255 259 259 255 258 261 267 270 271 269 265 267 269 267 266 266 266 265 264 260 257 256 254 251 252 257 259 259 259 259 258 257 256 257 259 261 263 266 267 269 271
245 249 256 259 260 257 256 261 266 271 271 272 272 271 269 267 268 266 268 268 266 262 262 259 254 250 250 252 255 258 259 259 259 258 259 259 260 261 264 267 270 273 274
244 246 249 252 256 259 259 260 264 270 270 272 272 270 272 273 274 272 271 269 270 270 266 262 257 255 254 255 256 258 259 261 262 262 263 263 263 266 269 271 272 274 276
253 251 250 252 254 258 261 263 267 269 270 271 272 268 268 271 273 274 274 273 272 270 268 269 266 263 261 261 261 262 263 265 267 267 268 269 269 270 271 272 274 275 277
255 255 255 256 258 258 261 264 266 269 271 273 272 270 268 269 270 273 275 276 274 273 272 269 269 268 267 266 266 266 266 267 268 269 270 271 272 273 274 275 276 277 278
258 257 259 259 259 260 261 262 265 268 271 274 272 271 268 266 268 272 274 276 277 275 274 274 273 272 271 271 271 271 271 272 272 273 274 275 276 276 276 277 278 279 279
257 258 259 259 261 262 263 265 268 269 272 274 273 272 268 267 270 273 276 277 277 277 276 275 274 274 273 272 272 272 272 272 272 273 275 275 276 277 278 278 279 280 281
264 264 264 264 265 266 267 268 270 272 274 273 272 271 268 268 270 273 274 276 277 277 277 277 276 276 277 277 277 276 276 275 276 276 276 277 278 278 278 279 280 280 281
264 264 266 267 268 270 271 271 272 273 272 272 270 268 266 267 269 272 274 276 277 277 277 278 278 279 279 279 280 280 280 280 280 280 280 279 280 280 280 281 281 282 283
265 266 266 267 267 267 268 268 268 268 268 268 269 269 270 270 271 272 273 274 274 275 277 277 276 277 277 279 280 281 281 281 280 280 280 280 280 280 280 280 281 281 282
263 264 264 265 265 266 267 268 269 269 269 270 271 271 272 272 273 274 275 277 278 279 280 282 283 283 285 286 285 284 284 283 283 282 281 281 281 281 281 281 281 280 280
Height
10331 10344 10338 10338 10341 10344 10340 10337 10334 10330 10323 10326 10324 10325 10317 10316 10313 10309 10302 10297 10296 10292 10290 10290 10290 10289 10288 10288 10287 10288 10289 10289 10289 10289 10288 10289 10289 10288 10287 10285 10283 10279 10279
10310 10306 10310 10308 10312 10312 10309 10309 10309 10307 10304 10303 10302 10301 10294 10293 10291 10290 10284 10281 10279 10279 10277 10276 10276 10276 10276 10275 10275 10276 10276 10276 10276 10275 10274 10274 10275 10275 10274 10270 10267 10264 10263
10279 10279 10278 10279 10282 10283 10280 10281 10281 10283 10278 10278 10276 10272 10272 10269 10270 10273 10269 10264 10264 10264 10264 10263 10263 10262 10263 10263 10263 10263 10263 10263 10263 10263 10262 10261 10261 10261 10260 10258 10255 10253 10251
10250 10251 10252 10255 10254 10256 10254 10254 10256 10255 10256 10254 10250 10249 10247 10248 10251 10252 10251 10248 10248 10249 10251 10251 10250 10250 10251 10250 10251 10250 10250 10250 10250 10249 10249 10249 10247 10247 10246 10247 10246 10244 10243
10233 10231 10231 10232 10231 10233 10235 10236 10236 10233 10235 10226 10232 10231 10230 10231 10234 10236 10235 10234 10235 10237 10238 10238 10238 10238 10238 10238 10238 10238 10237 10237 10237 10236 10236 10236 10236 10236 10236 10236 10237 10236 10235
10212 10211 10211 10212 10214 10216 10216 10215 10213 10214 10214 10212 10212 10214 10212 10213 10219 10219 10220 10220 10224 10224 10225 10226 10226 10226 10226 10226 10226 10226 10225 10224 10224 10224 10224 10225 10226 10226 10227 10227 10228 10229 10229
10195 10195 10195 10195 10195 10197 10198 10196 10196 10196 10196 10196 10197 10197 10197 10198 10202 10204 10206 10210 10211 10212 10214 10215 10215 10214 10214 10214 10213 10212 10212 10211 10211 10211 10212 10214 10216 10217 10218 10220 10221 10221 10222
10179 10179 10180 10181 10181 10183 10184 10183 10181 10182 10181 10181 10182 10183 10183 10186 10189 10191 10196 10199 10200 10201 10202 10203 10204 10203 10203 10202 10200 10199 10198 10198 10199 10200 10201 10203 10206 10207 10209 10212 10213 10214 10214
10166 10166 10166 10168 10169 10171 10172 10171 10170 10170 10170 10171 10171 10172 10173 10175 10178 10181 10185 10187 10189 10190 10191 10193 10193 10192 10191 10189 10188 10187 10187 10186 10187 10188 10189 10191 10194 10197 10200 10203 10205 10206 10206
10154 10156 10157 10159 10160 10161 10162 10161 10160 10160 10161 10162 10163 10164 10165 10167 10169 10172 10175 10176 10179 10179 10181 10181 10181 10180 10179 10178 10177 10176 10175 10174 10175 10176 10177 10180 10183 10187 10190 10193 10195 10196 10197
10146 10148 10149 10150 10151 10152 10152 10152 10152 10152 10153 10155 10156 10156 10157 10159 10160 10162 10164 10167 10167 10168 10169 10170 10170 10168 10167 10167 10166 10166 10165 10164 10164 10165 10167 10170 10174 10177 10180 10183 10184 10186 10186
10136 10139 10140 10141 10142 10142 10143 10143 10144 10145 10146 10147 10147 10148 10149 10150 10152 10153 10155 10156 10156 10156 10158 10159 10157 10157 10157 10156 10156 10156 10156 10154 10155 10157 10159 10161 10164 10167 10170 10171 10172 10173 10174
10126 10127 10130 10132 10133 10134 10135 10135 10136 10138 10139 10139 10139 10139 10139 10140 10141 10142 10143 10144 10144 10145 10147 10146 10144 10145 10146 10147 10147 10147 10148 10147 10147 10148 10151 10154 10155 10157 10159 10160 10160 10161 10161
10117 10118 10121 10123 10124 10125 10126 10127 10128 10128 10129 10129 10129 10129 10129 10128 10128 10129 10129 10129 10129 10130 10133 10132 10131 10132 10136 10137 10138 10139 10139 10139 10140 10141 10142 10143 10144 10145 10146 10147 10147 10147 10147
10107 10109 10111 10113 10114 10116 10118 10119 10119 10119 10119 10119 10119 10119 10118 10117 10117 10116 10115 10115 10116 10118 10118 10119 10120 10122 10124 10125 10127 10128 10130 10130 10130 10131 10131 10131 10130 10130 10131 10131 10131 10132 10131
10098 10099 10100 10103 10105 10107 10108 10109 10109 10109 10109 10109 10109 10108 10107 10107 10105 10105 10104 10104 10103 10104 10103 10105 10107 10110 10112 10115 10116 10117 10117 10117 10118 10118 10116 10115 10116 10116 10115 10115 10114 10113 10112
10087 10089 10091 10093 10094 10095 10097 10097 10098 10098 10097 10097 10097 10097 10097 10096 10095 10094 10093 10092 10090 10091 10093 10094 10095 10097 10098 10100 10101 10101 10101 10102 10103 10101 10100 10099 10099 10098 10097 10096 10096 10095 10093
10075 10077 10080 10081 10081 10082 10083 10085 10085 10086 10086 10085 10086 10086 10085 10085 10084 10082 10081 10079 10078 10079 10079 10081 10082 10083 10084 10085 10086 10085 10085 10085 10084 10084 10083 10081 10081 10081 10080 10077 10076 10073 10070
10063 10066 10067 10068 10069 10070 10071 10072 10071 10072 10073 10072 10072 10072 10073 10074 10072 10071 10069 10066 10066 10064 10066 10066 10067 10068 10069 10069 10070 10070 10069 10068 10067 10065 10063 10061 10060 10060 10058 10055 10052 10050 10047
10051 10053 10055 10056 10057 10058 10059 10060 10059 10058 10058 10058 10058 10058 10059 10060 10059 10058 10057 10054 10052 10050 10049 10050 10050 10050 10050 10050 10051 10050 10049 10047 10045 10043 10040 10038 10036 10036 10034 10031 10026 10023 10020
10039 10040 10042 10043 10044 10045 10045 10046 10046 10045 10044 10043 10043 10043 10044 10044 10044 10044 10043 10041 10039 10037 10035 10032 10032 10031 10030 10030 10029 10028 10027 10025 10021 10018 10016 10014 10012 10010 10007 10005 10000 9997 9993
10025 10027 10028 10029 10030 10031 10031 10032 10032 10031 10030 10029 10028 10028 10028 10028 10027 10026 10026 10025 10023 10022 10019 10017 10014 10011 10009 10009 10008 10007 10005 10001 9997 9995 9993 9989 9987 9983 9980 9978 9974 9969 9965
10013 10014 10015 10016 10017 10017 10017 10017 10017 10016 10015 10015 10014 10013 10013 10012 10011 10009 10008 10006 10005 10003 10001 9999 9996 9993 9990 9986 9985 9984 9982 9979 9976 9973 9969 9965 9962 9957 9954 9950 9946 9942 9938
10001 10001 10002 10002 10002 10003 10003 10002 10002 10001 10001 10000 9999 9998 9997 9996 9994 9992 9990 9988 9986 9983 9981 9978 9975 9972 9968 9965 9962 9959 9956 9953 9950 9946 9943 9939 9935 9930 9926 9922 9918 9914 9910
9988 9988 9989 9989 9988 9988 9987 9986 9985 9985 9984 9983 9982 9981 9980 9978 9976 9974 9971 9968 9965 9963 9960 9958 9954 9951 9948 9945 9940 9936 9932 9929 9924 9919 9915 9912 9908 9904 9899 9895 9892 9888 9885
9974 9974 9974 9973 9972 9972 9971 9970 9969 9968 9966 9965 9964 9962 9959 9957 9954 9952 9948 9945 9942 9938 9935 9932 9929 9925 9922 9918 9914 9909 9905 9901 9898 9892 9888 9885 9882 9877 9872 9867 9864 9861 9858